International Virtual Aviation Organisation

Russian Federation and Kazakhstan MCD

 

Карточка аэропорта UHSS

Внимание!
Информация на этой странице в стадии наполнения.
Если вы не увидели какой-то информации, или заметили неточность - пожалуйста сообщите нам!
Спасибо!
Команда RU-STAFF
Название аэропортаХомутово
Название аэропорта (англ.)Khomutovo
Превышение59 ft. (18 m.)
Координаты46°53.316', 142°43.020000000001'
Высота перехода1600
Эшелон переходаFL080
Коды ответчика6601-6627
Зона ОрВДХабаровск РПИ (UHHH)
Данные METARUHSS 280930Z 36002MPS 9999 FEW040 M05/M10 Q1013 R01/810265 NOSIG RMK QFE758/1011
Проноз погоды (TAF)UHSS 280750Z 2809/2915 36003MPS 9999 BKN030CB TEMPO 2809/2915 -SHSN
NOTAMshow/hide NOTAM
AWOS   TABLE

Информация о ВПП

ВПП Длина ВПП (м.) Покрытие Курс ВПП Частота ILS
013401Железобетон12109.5
193401Железобетон192111.7

Диспетчерские позиции

Позывной Наименование органа УВД Частота
UHSS_R_APPЮжно-Сахалинск−Круг120.6
UHSS_TWRЮжно-Сахалинск−Старт122.0



Спутниковое изображение